This is the latest recevied weather packets stored in our database for station/object IW3HBX-3. If no packets are shown the sender has not sent any weather packets the latest 1 day(s).
| Time | Temp. | Humidity | Pressure | Rain* | Wind** | Luminosity | Snow |
|---|---|---|---|---|---|---|---|
| 1777998595 | 13.89° C | 94% | 1013.8 hPa | 0 mm | 1.34 m/s, 62° | 22 W/m² | - |
| 1777998295 | 13.89° C | 94% | 1013.8 hPa | 0 mm | 2.24 m/s, 62° | 28 W/m² | - |
| 1777997995 | 13.89° C | 94% | 1013.9 hPa | 0 mm | 1.34 m/s, 68° | 26 W/m² | - |
| 1777997695 | 13.89° C | 94% | 1013.9 hPa | 0 mm | 1.34 m/s, 59° | 24 W/m² | - |
| 1777997395 | 13.89° C | 94% | 1014 hPa | 0 mm | 0.45 m/s, 71° | 17 W/m² | - |
| 1777997095 | 13.89° C | 93% | 1014 hPa | 0 mm | 1.79 m/s, 65° | 24 W/m² | - |
| 1777996795 | 13.89° C | 94% | 1014.1 hPa | 0 mm | 1.34 m/s, 71° | 25 W/m² | - |
| 1777996495 | 13.89° C | 94% | 1014 hPa | 0 mm | 2.68 m/s, 61° | 27 W/m² | - |
| 1777996194 | 13.89° C | 94% | 1014.1 hPa | 0 mm | 2.24 m/s, 63° | 17 W/m² | - |
| 1777995894 | 13.89° C | 94% | 1014.1 hPa | 0 mm | 0.45 m/s, 72° | 11 W/m² | - |
| 1777995594 | 13.89° C | 94% | 1014.1 hPa | 0 mm | 1.34 m/s, 47° | 11 W/m² | - |
| 1777995294 | 13.89° C | 94% | 1014.1 hPa | 0 mm | 0.45 m/s, 295° | 11 W/m² | - |
| 1777994994 | 13.89° C | 94% | 1014 hPa | 0 mm | 1.34 m/s, 68° | 16 W/m² | - |
| 1777994694 | 13.89° C | 94% | 1014 hPa | 0 mm | 1.34 m/s, 61° | 30 W/m² | - |
| 1777994394 | 13.89° C | 94% | 1014 hPa | 0 mm | 2.24 m/s, 74° | 28 W/m² | - |
| 1777994094 | 13.89° C | 94% | 1014 hPa | 0 mm | 0.89 m/s, 43° | 24 W/m² | - |
| 1777993794 | 13.89° C | 94% | 1013.9 hPa | 0 mm | 0.45 m/s, 15° | 24 W/m² | - |
| 1777993494 | 13.89° C | 94% | 1014 hPa | 0 mm | 0.89 m/s, 59° | 25 W/m² | - |
| 1777993194 | 13.89° C | 94% | 1014 hPa | 0.25 mm | 0.89 m/s, 62° | 37 W/m² | - |
| 1777992894 | 13.89° C | 94% | 1014 hPa | 0.25 mm | 1.34 m/s, 71° | 37 W/m² | - |
| 1777992593 | 13.89° C | 94% | 1014 hPa | 0.25 mm | 0.89 m/s, 69° | 36 W/m² | - |
| 1777992293 | 13.89° C | 94% | 1014.1 hPa | 0.25 mm | 0.89 m/s, 73° | 39 W/m² | - |
| 1777991993 | 14.44° C | 94% | 1014.1 hPa | 0.25 mm | 1.34 m/s, 74° | 44 W/m² | - |
| 1777991693 | 13.89° C | 94% | 1014.1 hPa | 0.25 mm | 1.34 m/s, 67° | 51 W/m² | - |
| 1777991393 | 14.44° C | 94% | 1014.1 hPa | 0.25 mm | 1.79 m/s, 62° | 56 W/m² | - |
* Rain latest hour (hover to see other rain measurements)
** Current wind speed in m/s (hover to see current wind gust speed)